Location: Bijele Vode
(45.2833°N, 16.2000°E)
Time: 01:20:43
(UTC+00:00)

USA 186 - Pass Details

Date: 18 September 2020
Orbit: 261 x 425 km, 96.9° (Epoch: 12 October)

Event Time Altitude Azimuth Distance (km) Brightness Sun altitude
Exits shadow 18:49:23 24° 202° (SSW) 866 3.3 -19.5°
Maximum altitude 18:50:51 44° 262° (W) 570 2.7 -19.8°
Drops below altitude 10° 18:53:58 10° 336° (NNW) 1,500 5.2 -20.3°
Sets 18:56:04 0° 343° (NNW) 2,387 6.2 -20.6°
